Kezdőlap
METAR-TAF:

METAR-TAF

Repülőterek :

Fort Madison Municipal Airport

Fort Madison, Iowa, Amerikai Egyesült Államok

földrajzi szélesség: 40-40N, földrajzi hosszúság: 091-20W, magasság: 221 m

Jelenlegi meteorológiai megfigyelések

A jelentés 18 perccel ezelõtt készült, 03:15 UTC
Északnyugati szél 3 kt
Hőmérséklet -3°C
Páratartalom 74%
Légköri nyomás 1021 hPa
Látótávolság: 16.1 km

METAR: KFSW 280315Z AUTO 32003KT 10SM M03/M07 A3014 RMK AO2

Idő: 21:33 (03:33 UTC)


TAF: hiányzik

Meteorológiai megfigyelések és előrejelzések több, mint 4000 repülőtéren (METAR és TAF jelentéseket).

A térképen piros és sárga pontok jelzik az elérhető meteorológiai állomásokat.

Mozgassa az egeret a pont fölött, hogy megjelenjen az állomás neve.

Azután kattintson az időjárási megfigyelések és előrejelzések megtekintéséhez.

A térkép megváltoztatása: kattintson a fekete keresztel jelölt zöld gombra ráközelítéshez, a vonallal jelölt zöld gombra távolításhoz, vagy a zöld nyilakra a szomszédos térképek eléréséhez.


METAR-TAF: